Location: Lombard
(41.8800°N, 88.0080°W)
Time: 13:33:18
(UTC-06:00)

Transit 4A - Pass Details

Date: 06 December 2023
Orbit: 870 x 973 km, 66.8° (Epoch: 03 March)

Event Time Altitude Azimuth Distance (km) Brightness Sun altitude
Rises 02:10:52 0° 337° (NNW) 3,616 - -53.6°
Reaches altitude 10° 02:15:19 10° 7° (N) 2,642 - -52.8°
Maximum altitude 02:17:46 12° 31° (NNE) 2,455 - -52.4°
Drops below altitude 10° 02:20:11 10° 54° (NE) 2,609 - -51.9°
Exits shadow 02:21:42 - 67° (ENE) 2,859 10.9 -51.7°
Sets 02:24:29 0° 84° (E) 3,521 11.5 -51.2°
